This demonstration page uses our WeatherBlox Daily Observations layout. Learn more.

Left ArrowRight Arrow

Hourly Observations for October 6, 2022

Temp ( °F °C ) Dew Point ( °F °C ) Humidity (%) Winds ( mph kmh ) Pressure ( in mb ) Visibility ( mi km ) Precip ( " mm )
12:53 am 00:53 Clear 51 10.6 46 7.8 83 83 Calm 30.05 1018 10 16 0.00 0.00
1:53 am 01:53 Clear 50 10 46 7.8 86 86 Calm 30.05 1018 10 16 0.00 0.00
2:53 am 02:53 Clear 49 9.4 46 7.8 90 90 Calm 30.05 1018 10 16 0.00 0.00
3:53 am 03:53 Clear 47 8.3 44 6.7 90 90 Calm 30.05 1018 10 16 0.00 0.00
4:53 am 04:53 Clear 47 8.3 45 7.2 93 93 Calm 30.05 1018 10 16 0.00 0.00
5:53 am 05:53 Clear 46 7.8 43 6.1 89 89 Calm 30.06 1018 10 16 0.00 0.00
6:53 am 06:53 Clear 45 7.2 43 6.1 93 93 Calm 30.08 1019 10 16 0.00 0.00
7:53 am 07:53 Sunny 46 7.8 42 5.6 86 86 Calm 30.09 1019 10 16 0.00 0.00
8:53 am 08:53 Sunny 53 11.7 45 7.2 74 74 Calm 30.11 1020 10 16 0.00 0.00
9:53 am 09:53 Sunny 58 14.4 46 7.8 65 65 Calm 30.11 1020 10 16 0.00 0.00
10:53 am 10:53 Sunny 67 19.4 47 8.3 49 49 VRB 3 6 30.11 1020 10 16 0.00 0.00
11:53 am 11:53 Sunny 72 22.2 48 8.9 43 43 VRB 3 6 30.11 1020 10 16 0.00 0.00
12:53 pm 12:53 Sunny 75 23.9 48 8.9 38 38 VRB 7 11 30.10 1019 10 16 0.00 0.00
1:53 pm 13:53 Sunny 77 25 43 6.1 30 30 WNW 9 15 30.08 1019 10 16 0.00 0.00
2:53 pm 14:53 Sunny 79 26.1 45 7.2 30 30 N 9 15 30.05 1018 10 16 0.00 0.00
3:53 pm 15:53 Sunny 80 26.7 42 5.6 26 26 NNW 9 15 30.04 1017 10 16 0.00 0.00
4:53 pm 16:53 Sunny 79 26.1 39 3.9 24 24 NNW 12 19 30.04 1017 10 16 0.00 0.00
5:53 pm 17:53 Sunny 79 26.1 38 3.3 23 23 N 6 9 30.05 1018 10 16 0.00 0.00
6:53 pm 18:53 Sunny 75 23.9 42 5.6 31 31 WNW 3 6 30.06 1018 10 16 0.00 0.00
7:53 pm 19:53 Clear 65 18.3 46 7.8 50 50 Calm 30.07 1018 10 16 0.00 0.00
8:53 pm 20:53 Clear 61 16.1 47 8.3 60 60 Calm 30.09 1019 10 16 0.00 0.00
9:53 pm 21:53 Clear 59 15 48 8.9 67 67 Calm 30.10 1019 10 16 0.00 0.00
10:53 pm 22:53 Clear 56 13.3 49 9.4 77 77 Calm 30.11 1020 10 16 0.00 0.00
11:53 pm 23:53 Clear 54 12.2 48 8.9 80 80 Calm 30.11 1020 10 16 0.00 0.00

Powered by AerisWeather